Regional Weather Roundup
Issued by NWS Albany, NY

Home | Current Version | Previous Version | Text Only | Print | Product List | Glossary On
Versions: 1 2 3 4 5 6 7 8 9 10 11 12 13 14 15 16 17 18 19 20 21 22 23 24 25 26 27 28 29 30 31 32 33 34 35 36 37 38 39 40 41 42 43 44 45 46 47 48 49 50
000
ASUS41 KALY 280410
RWRALY

NEW YORK STATE HOURLY WEATHER ROUNDUP
NATIONAL WEATHER SERVICE ALBANY NY
1100 PM EST SAT DEC 27 2014

NOTE: "FAIR" INDICATES FEW OR NO CLOUDS BELOW 12,000 FEET WITH NO
SIGNIFICANT WEATHER AND/OR NO OBSTRUCTIONS TO VISIBILITY.

NYZ032-033-038>043-046>054-057>066-NYZ062>081-280500-
EAST


CITY           SKY/WX    TMP DP  RH WIND       PRES   REMARKS
ALBANY         CLOUDY    47  34  60 S16G23    29.98F
GLENS FALLS    CLOUDY    42  34  73 S3        29.96F
POUGHKEEPSIE   CLOUDY    40  35  83 CALM      30.07F
NEWBURGH       CLOUDY    46  36  66 CALM      30.08F
MONTGOMERY     CLOUDY    41  36  82 SW6       30.07F
WHITE PLAINS   PTCLDY    45  35  68 CALM      30.09F
ISLIP          PTCLDY    43  39  86 SW6       30.11F
NEW YORK CITY  MOCLDY    49  35  58 SW7       30.11F
CENTRAL PARK   MOCLDY    50  32  50 VRB6      30.13F
$$

NYZ005>009-017-018-044>046-055-056-280500-
CENTRAL


CITY           SKY/WX    TMP DP  RH WIND       PRES   REMARKS
FULTON         CLOUDY    52  36  54 S9G18     29.89F
SYRACUSE       CLOUDY    53  35  50 S10       29.90F
ROME           CLOUDY    49  37  63 SE6       29.95F
ELMIRA         CLOUDY    47  36  65 SW6       29.92F
BINGHAMTON     CLOUDY    46  33  60 S13       29.96F
MONTICELLO     MOCLDY    37  34  87 CALM      30.05F
$$

NYZ026>034-041>043-280500-
NORTH


CITY           SKY/WX    TMP DP  RH WIND       PRES   REMARKS
WATERTOWN      CLOUDY    53  36  52 S12G20    29.85F
FORT DRUM      NOT AVBL
MASSENA        CLOUDY    52  39  61 SW20G28   29.80S
SARANAC LAKE   CLOUDY    42  35  76 SW17      29.81F
PLATTSBURGH    CLOUDY    42  34  73 S6        29.83F
$$

NYZ001>004-010>016-019>021-280500-
WEST


CITY           SKY/WX    TMP DP  RH WIND       PRES   REMARKS
NIAGARA FALLS  LGT RAIN  48  41  76 SW21G32   29.88S
BUFFALO        CLOUDY    47  38  71 SW13      29.89F
DUNKIRK        CLOUDY    51  39  63 SW16G25   29.92F
JAMESTOWN      CLOUDY    45  37  76 SW12      29.93F
WELLSVILLE     CLOUDY    50  30  46 SW16G28   29.93F
ROCHESTER      CLOUDY    54  35  48 SW15      29.86F
PENN YAN       CLOUDY    48  36  63 SW7       29.90F
$$

             KEY
       WCI = WIND CHILL INDEX
       VSB = VISIBILITY
       HX  = HEAT INDEX
$$


USA.gov is the U.S. government's official web portal to all federal, state and local government web resources and services.